Location: Temagami
(47.0645°N, 79.7909°W)
Time: 23:01:53
(UTC-04:00)

ACS3 Solar Sail - Visible Passes

Search period start: 07 June 2026 00:00
Search period end: 17 June 2026 00:00
Orbit: 879 x 951 km, 97.2° (Epoch: 7 June)

Date Brightness Start Highest point End Pass type
(mag) Time Alt. Az. Time Alt. Az. Time Alt. Az.
7 Jun 3.6 00:19:19 10° NE 00:22:29 15° E 00:24:45 12° ESE visible
7 Jun 1.6 01:59:43 10° NNE 02:05:28 89° WNW 02:08:07 34° SSW visible
7 Jun 3.6 03:43:30 10° NNW 03:46:55 17° WNW 03:50:22 10° W visible
8 Jun 3.4 00:25:58 10° NE 00:29:41 17° E 00:31:56 14° ESE visible
8 Jun 1.6 02:06:48 10° N 02:12:32 78° WNW 02:15:19 33° SSW visible
8 Jun 3.7 03:50:54 10° NNW 03:53:52 15° NW 03:56:52 10° W visible
9 Jun 3.3 00:32:39 10° NE 00:36:47 20° E 00:39:04 16° ESE visible
9 Jun 1.7 02:13:50 10° N 02:19:31 68° WNW 02:22:25 30° SSW visible
9 Jun 3.8 03:58:21 10° NNW 04:00:44 13° NW 04:03:08 10° W visible
10 Jun 3.1 00:39:19 10° NE 00:43:49 23° E 00:46:06 18° ESE visible
10 Jun 1.9 02:20:48 10° N 02:26:25 60° WNW 02:29:27 28° SW visible
10 Jun 3.9 04:05:55 10° NW 04:07:31 11° NW 04:09:06 10° WNW visible
11 Jun 3.0 00:45:58 10° NE 00:50:45 26° E 00:53:03 21° SE visible
11 Jun 2.1 02:27:40 10° N 02:33:15 52° WNW 02:36:24 25° SW visible
12 Jun 2.8 00:52:34 10° NNE 00:57:36 30° E 00:59:56 23° SE visible
12 Jun 2.3 02:34:30 10° N 02:39:59 46° WNW 02:43:17 23° SW visible
13 Jun 2.6 00:59:07 10° NNE 01:04:22 35° E 01:06:44 25° SE visible
13 Jun 2.5 02:41:16 10° N 02:46:36 41° WNW 02:50:04 21° SW visible
14 Jun 2.4 01:05:38 10° NNE 01:11:02 39° E 01:13:27 28° SE visible
14 Jun 2.6 02:47:59 10° N 02:53:10 36° WNW 02:56:47 18° WSW visible
15 Jun 2.2 01:12:05 10° NNE 01:17:38 45° E 01:20:05 30° SSE visible
15 Jun 2.8 02:54:36 10° N 02:59:39 32° WNW 03:03:24 16° WSW visible
16 Jun 2.1 01:18:29 10° NNE 01:24:07 51° E 01:26:38 31° SSE visible
16 Jun 3.0 03:01:11 10° N 03:06:02 29° WNW 03:09:57 14° WSW visible
